Tracking 19969 objects as of 12-Nov-2019
Live streaming from Space Station
objects crossing your sky now
Track the group of recently launched Starlink satellites

COSMOS 397 DEB

Track COSMOS 397 DEB now!
10-day predictions


NORAD ID: 6844
Int'l Code: 1971-015CL
Perigee: 539.9 km
Apogee: 1,486.5 km
Inclination: 65.9 °
Period: 105.2 minutes
Semi major axis: 7384 km
RCS: 0.0356 m2 (small)
Launch date: February 25, 1971
Source: Commonwealth of Independent States (former USSR) (CIS)
Launch site: TYURATAM MISSILE AND SPACE COMPLEX (TTMTR)

Note: This is SATELLITE DEBRIS
aabbcc
Your satellite tracking list
Your tracking list is empty




NASA's NSSDC Master Catalog

Two Line Element Set (TLE):
1  6844U 71015CL  19315.74058706  .00000387  00000-0  13349-3 0  9993
2  6844  65.9028  62.0673 0640957 257.3434  95.5275 13.68190338289843
Source of the keplerian elements: AFSPC